DW7040 Weather Reports


Display with metric or nautical units.
time (UTC)temp
F
wind
direction
speed
MPH
gust
MPH
rain 1hr
in
rain 24hr
in
rain mn
in
humidity
%
barometer
mb
20260502221546 0 201 2.0 6.0 0.00 0.00 0.00 1002.6
20260502220041 0 202 2.0 5.0 0.00 0.00 0.00 1002.7
20260502214536 0 202 3.0 4.0 0.00 0.00 0.00 1002.7
20260502213025 0 202 2.0 4.0 0.00 0.00 0.00 1002.7
20260502211517 0 202 2.0 5.0 0.00 0.00 0.00 1002.8
20260502210012 0 202 2.0 5.0 0.00 0.00 0.00 1002.9
20260502204515 0 202 2.0 3.0 0.00 0.00 0.00 1002.9
20260502203007 0 203 4.0 7.0 0.00 0.00 0.00 1002.9
20260502201559 0 203 5.0 8.0 0.00 0.00 0.00 1002.9
20260502200057 0 203 5.0 7.0 0.00 0.00 0.00 1003.0
20260502194554 0 203 3.0 8.0 0.00 0.00 0.00 1003.0
20260502193035 0 202 1.0 4.0 0.00 0.00 0.00 1003.0
20260502191530 0 202 2.0 6.0 0.00 0.00 0.00 1003.0
20260502190028 0 204 3.0 5.0 0.00 0.00 0.00 1003.1
20260502184528 0 204 3.0 5.0 0.00 0.00 0.00 1003.2
20260502183017 0 204 3.0 5.0 0.00 0.00 0.00 1003.2
20260502181513 0 203 3.0 6.0 0.00 0.00 0.00 1003.2
20260502163102 0 204 4.0 9.0 0.00 0.00 0.00 1003.5
20260502161555 0 204 4.0 9.0 0.00 0.00 0.00 1003.7
20260502151512 0 205 6.0 11.0 0.00 0.00 0.00 1004.3
20260502123101 0 243 5.0 13.0 0.00 0.00 0.00 1005.7
20260502121532 0 241 9.0 13.0 0.00 0.00 0.00 1006.0
20260502114522 0 243 7.0 11.0 0.00 0.00 0.00 1006.5
20260502113048 0 242 9.0 12.0 0.00 0.00 0.00 1006.6
20260502111505 0 241 8.0 13.0 0.00 0.00 0.00 1006.6
20260502110100 0 242 4.0 12.0 0.00 0.00 0.00 1006.5
20260502104531 0 240 8.0 12.0 0.00 0.00 0.00 1006.5
20260502103031 0 241 9.0 15.0 0.00 0.00 0.00 1006.4
20260502101529 0 241 5.0 14.0 0.00 0.00 0.00 1006.5
20260502071532 0 232 8.0 14.0 0.00 0.00 0.00 1007.3
20260502070040 0 232 6.0 10.0 0.00 0.00 0.00 1007.4
20260502064533 0 232 4.0 10.0 0.00 0.00 0.00 1007.3
20260502063027 0 231 6.0 11.0 0.00 0.00 0.00 1007.3
20260502061556 0 231 6.0 11.0 0.00 0.00 0.00 1007.2
20260502060054 0 232 6.0 10.0 0.00 0.00 0.00 1007.1
20260502054548 0 232 6.0 11.0 0.00 0.00 0.00 1007.1
20260502053053 0 232 7.0 10.0 0.00 0.00 0.00 1007.2
20260502051537 0 232 5.0 12.0 0.00 0.00 0.00 1007.3
20260502050003 0 232 9.0 14.0 0.00 0.00 0.00 1007.3
20260502044559 0 231 7.0 12.0 0.00 0.00 0.00 1007.3
20260502043058 0 231 8.0 15.0 0.00 0.00 0.00 1007.3
20260502041552 0 230 9.0 15.0 0.00 0.00 0.00 1007.4
20260502040006 0 230 7.0 14.0 0.00 0.00 0.00 1007.4
20260502034557 0 230 9.0 15.0 0.00 0.00 0.00 1007.4
20260502033048 0 229 10.0 15.0 0.00 0.00 0.00 1007.5
20260502031544 0 228 11.0 18.0 0.00 0.00 0.00 1007.5
20260502030042 0 226 10.0 16.0 0.00 0.00 0.00 1007.7
20260502024537 0 223 8.0 15.0 0.00 0.00 0.00 1007.8
20260502023054 0 223 9.0 14.0 0.00 0.00 0.00 1007.9
20260502021529 0 222 10.0 15.0 0.00 0.00 0.00 1007.9
20260502020036 0 221 9.0 14.0 0.00 0.00 0.00 1008.0
20260502014526 0 222 10.0 18.0 0.00 0.00 0.00 1008.1
20260502013021 0 219 10.0 19.0 0.00 0.00 0.00 1008.3
20260502011555 0 218 8.0 13.0 0.00 0.00 0.00 1008.4
20260502010055 0 218 9.0 14.0 0.00 0.00 0.00 1008.5
20260502004553 0 218 7.0 13.0 0.00 0.00 0.00 1008.7
20260502003049 0 218 7.0 13.0 0.00 0.00 0.00 1008.8
20260502001552 0 217 7.0 13.0 0.00 0.00 0.00 1009.0
20260502000003 0 218 6.0 12.0 0.00 0.00 0.00 1009.0
20260501234559 0 217 6.0 12.0 0.00 0.00 0.00 1009.1
20260501233002 0 218 7.0 12.0 0.00 0.00 0.00 1009.2
20260501231635 0 217 5.0 10.0 0.00 0.00 0.00 1009.1
20260501230058 0 217 6.0 11.0 0.00 0.00 0.00 1009.2
20260501224543 0 218 5.0 9.0 0.00 0.00 0.00 1009.5
20260501223026 0 218 5.0 11.0 0.00 0.00 0.00 1009.5
20260501221605 0 217 7.0 10.0 0.00 0.00 0.00 1009.5